CZ-4C DEB, 43338

Orbit data source: Space-Track

CZ-4C DEB, 43338 is space debris in LEO originally from a launch on Tue, 10 Apr 2018 UTC launched from the Jiuquan Satellite Launch Center, China (JSC). Debris objects in space refer to the collection of defunct objects orbiting the Earth. Examples of debris include non-operational satellites, rocket bodies, and fragments generated from explosions, collisions, or faulty payload assembly.

Loading next visibility...
CZ-4C DEB details
Identifier
43338, 2018-034H
Orbit
LEO
Last TLE update5 hours ago
Origin
Flag of CNCNSA (CN / PRC)
ManufacturerUnknown
MissionSpacecraft
Bus & MotorUnknown
MassUnknown
Launch date (UTC)
2018-04-10 (7 years ago)
Launch vehicleUnknown
Launch site
Jiuquan Satellite Launch Center, China (JSC)
Object type
Payload
Rocket body
Debris
Shape & HBRUnknown
Radar Cross SectionSmall (<0.1 m²)

Expand to show TLE details & history

TLE from 5 hours ago
0 CZ-4C DEB
1 43338U 18034H   24361.41876728 -.00000021  00000-0  10137-3 0  9995
2 43338  63.3990  41.2467 0226926   6.8185 353.5839 13.44678296329484
Epoch: 2024-12-26T10:03Z
Definitive object data (Epoch: 2024-12-26T10:03:01.492Z)
Latitude-0.00009°
Longitude155.092°
Altitude925.249 km
Speed7.473 km/s
True Right ascension02h 44m 59s
True Declination0° 00' 00"
Sunlit
Object was in full shadow at TLE epoch
Visualization TLE readout
Latitude-35.1576°
Longitude133.99894°
Altitude985.656 km
Speed7.416 km/s
Apparent Right ascension01h 53m 52s
Apparent Declination-37° 33' 14"
Sunlit
Object is in daylight
Visualization observer readout
Local Sidereal Time14:34:51
Azimuth76.788° E
Elevation-81.672°
Doppler factor1
Orbital elements
Apogee altitude1,260.22 km
Perigee altitude921.244 km
Semi-major axis7,468.869 km
Eccentricity0.0226926
Inclination63.399°
RAAN41.2467°
Arg. of periapsis6.8185°
True anomaly353.2849°
Mean anomaly353.5839°
Eccentric anomaly353.43525°
Mean motion3.36249 °/min
BSTAR0.00010137
Orbital period107.06 mins
Loading maneuver chart data...
Loading historical data...
Loading historical data...
Loading historical data...
Loading historical data...
Loading historical data...
Loading historical data...
Loading historical data...

CZ-4C DEB Visibility forecast

Observer location: undefined°, undefined

Span
Click to sort rows by Start time (UTC) header in descending order
Start Az.
Max El. time (UTC)
Max El. Az.
Max El.
End time (UTC)
End Az.
10 mins2024-12-27 04:00:52.831Z181.093° SSW2024-12-27 04:05:52.831Z111.004° ESE34.126°2024-12-27 04:10:52.831Z49.038° ENE
10 mins2024-12-27 05:51:52.831Z255.613° W2024-12-27 05:55:52.831Z305.902° NW30.156°2024-12-27 06:01:52.831Z19.501° NNE
9 mins2024-12-27 11:32:52.831Z354.586° N2024-12-27 11:36:52.831Z36.194° NE22.459°2024-12-27 11:41:52.831Z84.057° E
13 mins2024-12-27 13:22:52.831Z326.208° NNW2024-12-27 13:28:52.831Z145.083° SSE44.768°2024-12-27 13:35:52.831Z148.073° SSE
|